When you browse on this site, cookies collect data to enhance your experience and personalize the content and advertising you see.
Visit our Privacy Policy to learn more. By continuing to use the site, you agree to this use of cookies and data.
  • Em Portugal
  • Lista de países
  • Para 7 dias
  • Temperatura da água
  • Mapas de satélite
  • Mapa do tempo
  • Widgets de tempo
  • user-avatar
    Iniciar Sessão

    Previsão horária em Krasnyy

    Hoje, 20 Junho, Quinta-feira

    Tempo Temperatura Precipitação Vento Pressão Humidade
    00:00 +18°C° 0 mm 1 m/s 748 mmHg 83%
    01:00 +18°C° 0 mm 1 m/s 748 mmHg 86%
    02:00 +16°C° 0 mm 1 m/s 749 mmHg 89%
    03:00 +16°C° 0 mm 1 m/s 749 mmHg 89%
    04:00 +18°C° 0 mm 1 m/s 749 mmHg 86%
    05:00 +19°C° 0 mm 1 m/s 749 mmHg 84%
    06:00 +19°C° 0 mm 1 m/s 749 mmHg 81%
    07:00 +21°C° 0 mm 1 m/s 749 mmHg 73%
    08:00 +23°C° 0 mm 1 m/s 749 mmHg 65%
    09:00 +26°C° 0 mm 1 m/s 750 mmHg 56%
    10:00 +26°C° 0 mm 2 m/s 750 mmHg 52%
    11:00 +27°C° 0 mm 2 m/s 750 mmHg 47%
    12:00 +28°C° 0 mm 2 m/s 750 mmHg 43%
    13:00 +28°C° 0 mm 2 m/s 750 mmHg 42%
    14:00 +29°C° 0 mm 2 m/s 750 mmHg 42%
    15:00 +29°C° 0 mm 2 m/s 749 mmHg 42%
    16:00 +29°C° 0 mm 2 m/s 749 mmHg 47%
    17:00 +28°C° 0 mm 2 m/s 749 mmHg 52%
    18:00 +28°C° 0 mm 1 m/s 749 mmHg 56%
    19:00 +26°C° 0 mm 1 m/s 749 mmHg 62%
    20:00 +23°C° 0 mm 1 m/s 750 mmHg 67%
    21:00 +21°C° 0 mm 1 m/s 750 mmHg 72%
    22:00 +20°C° 0 mm 1 m/s 750 mmHg 75%
    23:00 +18°C° 0 mm 0 m/s 750 mmHg 77%

    Amanhã, 21 Junho, Sexta-feira

    Tempo Temperatura Precipitação Vento Pressão Humidade
    00:00 +17°C° 0 mm 0 m/s 750 mmHg 80%
    01:00 +17°C° 0 mm 0 m/s 750 mmHg 81%
    02:00 +19°C° 0 mm 1 m/s 751 mmHg 81%
    03:00 +19°C° 0 mm 1 m/s 751 mmHg 81%
    04:00 +19°C° 0 mm 1 m/s 751 mmHg 80%
    05:00 +20°C° 0 mm 1 m/s 751 mmHg 79%
    06:00 +21°C° 0 mm 1 m/s 751 mmHg 77%
    07:00 +23°C° 0 mm 1 m/s 752 mmHg 70%
    08:00 +25°C° 0 mm 1 m/s 752 mmHg 64%
    09:00 +27°C° 0 mm 1 m/s 752 mmHg 57%
    10:00 +28°C° 0 mm 1 m/s 752 mmHg 52%
    11:00 +29°C° 0 mm 1 m/s 752 mmHg 47%
    12:00 +30°C° 0 mm 2 m/s 751 mmHg 42%
    13:00 +30°C° 0 mm 2 m/s 751 mmHg 42%
    14:00 +30°C° 0 mm 2 m/s 751 mmHg 43%
    15:00 +30°C° 0 mm 2 m/s 751 mmHg 43%
    16:00 +29°C° 0 mm 2 m/s 751 mmHg 49%
    17:00 +29°C° 0 mm 1 m/s 751 mmHg 55%
    18:00 +28°C° 0 mm 1 m/s 751 mmHg 60%
    19:00 +26°C° 0 mm 1 m/s 751 mmHg 66%
    20:00 +24°C° 0 mm 1 m/s 751 mmHg 71%
    21:00 +22°C° 0 mm 1 m/s 751 mmHg 77%
    22:00 +22°C° 0 mm 1 m/s 751 mmHg 77%
    23:00 +21°C° 0 mm 1 m/s 751 mmHg 77%

    Depois de amanhã, 22 Junho, Sábado

    Tempo Temperatura Precipitação Vento Pressão Humidade
    00:00 +21°C° 0 mm 1 m/s 751 mmHg 76%
    01:00 +21°C° 0 mm 1 m/s 751 mmHg 76%
    02:00 +20°C° 0 mm 1 m/s 751 mmHg 76%
    03:00 +19°C° 0 mm 2 m/s 751 mmHg 76%
    04:00 +20°C° 0 mm 2 m/s 751 mmHg 76%
    05:00 +20°C° 0 mm 2 m/s 751 mmHg 76%
    06:00 +21°C° 0 mm 2 m/s 751 mmHg 75%
    07:00 +24°C° 0 mm 2 m/s 751 mmHg 69%
    08:00 +25°C° 0 mm 3 m/s 751 mmHg 63%
    09:00 +27°C° 0 mm 3 m/s 751 mmHg 57%
    10:00 +28°C° 0 mm 4 m/s 751 mmHg 53%
    11:00 +29°C° 0 mm 4 m/s 751 mmHg 50%
    12:00 +30°C° 0 mm 4 m/s 751 mmHg 46%
    13:00 +30°C° 0 mm 4 m/s 751 mmHg 46%
    14:00 +30°C° 0 mm 5 m/s 751 mmHg 47%
    15:00 +30°C° 0 mm 5 m/s 750 mmHg 47%
    16:00 +30°C° 0 mm 4 m/s 750 mmHg 52%
    17:00 +29°C° 0 mm 4 m/s 750 mmHg 56%
    18:00 +29°C° 0 mm 3 m/s 750 mmHg 60%
    19:00 +27°C° 0 mm 3 m/s 750 mmHg 67%
    20:00 +25°C° 0 mm 3 m/s 750 mmHg 74%
    21:00 +23°C° 0 mm 2 m/s 750 mmHg 80%
    22:00 +21°C° 0 mm 2 m/s 750 mmHg 82%
    23:00 +21°C° 0 mm 2 m/s 750 mmHg 84%

    23 Junho, Domingo

    Tempo Temperatura Precipitação Vento Pressão Humidade
    00:00 +20°C° 0 mm 2 m/s 750 mmHg 85%
    01:00 +20°C° 0 mm 2 m/s 750 mmHg 86%
    02:00 +19°C° 0 mm 2 m/s 750 mmHg 87%
    03:00 +19°C° 0 mm 2 m/s 751 mmHg 88%
    04:00 +20°C° 0 mm 2 m/s 751 mmHg 85%
    05:00 +21°C° 0 mm 2 m/s 751 mmHg 83%
    06:00 +21°C° 0 mm 2 m/s 751 mmHg 80%
    07:00 +24°C° 0 mm 2 m/s 751 mmHg 75%
    08:00 +26°C° 0 mm 3 m/s 751 mmHg 70%
    09:00 +27°C° 0 mm 3 m/s 751 mmHg 65%
    10:00 +29°C° 0.1 mm 3 m/s 751 mmHg 61%
    11:00 +30°C° 0.1 mm 3 m/s 751 mmHg 56%
    12:00 +31°C° 0.1 mm 3 m/s 751 mmHg 51%
    13:00 +31°C° 0.1 mm 3 m/s 751 mmHg 51%
    14:00 +31°C° 0.1 mm 3 m/s 751 mmHg 52%
    15:00 +31°C° 0.1 mm 3 m/s 751 mmHg 52%
    16:00 +30°C° 0.1 mm 3 m/s 750 mmHg 57%
    17:00 +29°C° 0.1 mm 3 m/s 750 mmHg 63%
    18:00 +28°C° 0.1 mm 3 m/s 750 mmHg 69%
    19:00 +26°C° 0.1 mm 2 m/s 750 mmHg 76%
    20:00 +24°C° 0.1 mm 2 m/s 750 mmHg 83%
    21:00 +23°C° 0.1 mm 1 m/s 750 mmHg 90%
    22:00 +22°C° 0 mm 1 m/s 750 mmHg 92%
    23:00 +21°C° 0 mm 1 m/s 751 mmHg 93%

    24 Junho, Segunda-feira

    Tempo Temperatura Precipitação Vento Pressão Humidade
    00:00 +21°C° 0 mm 1 m/s 751 mmHg 95%
    01:00 +19°C° 0 mm 2 m/s 751 mmHg 92%
    02:00 +18°C° 0 mm 2 m/s 751 mmHg 89%
    03:00 +17°C° 0 mm 2 m/s 751 mmHg 86%
    04:00 +17°C° 0 mm 3 m/s 752 mmHg 81%
    05:00 +17°C° 0 mm 3 m/s 752 mmHg 77%
    06:00 +17°C° 0 mm 3 m/s 752 mmHg 72%
    07:00 +18°C° 0 mm 3 m/s 753 mmHg 66%
    08:00 +20°C° 0 mm 3 m/s 753 mmHg 60%
    09:00 +21°C° 0 mm 3 m/s 753 mmHg 54%
    10:00 +22°C° 0 mm 4 m/s 753 mmHg 49%
    11:00 +23°C° 0 mm 4 m/s 754 mmHg 45%
    12:00 +25°C° 0 mm 4 m/s 754 mmHg 40%
    13:00 +25°C° 0 mm 4 m/s 754 mmHg 40%
    14:00 +25°C° 0 mm 4 m/s 754 mmHg 40%
    15:00 +25°C° 0 mm 4 m/s 754 mmHg 39%
    16:00 +25°C° 0 mm 4 m/s 754 mmHg 43%
    17:00 +24°C° 0 mm 3 m/s 754 mmHg 46%
    18:00 +22°C° 0 mm 3 m/s 754 mmHg 49%
    19:00 +20°C° 0 mm 3 m/s 754 mmHg 54%
    20:00 +18°C° 0 mm 3 m/s 754 mmHg 59%
    21:00 +16°C° 0 mm 3 m/s 755 mmHg 63%
    22:00 +15°C° 0 mm 2 m/s 755 mmHg 67%
    23:00 +14°C° 0 mm 2 m/s 755 mmHg 71%

    25 Junho, Terça-feira

    Tempo Temperatura Precipitação Vento Pressão Humidade
    00:00 +13°C° 0 mm 2 m/s 755 mmHg 76%
    01:00 +12°C° 0 mm 2 m/s 755 mmHg 77%
    02:00 +12°C° 0 mm 2 m/s 755 mmHg 79%
    03:00 +10°C° 0 mm 2 m/s 755 mmHg 81%
    04:00 +12°C° 0 mm 2 m/s 755 mmHg 80%
    05:00 +13°C° 0 mm 2 m/s 755 mmHg 79%
    06:00 +14°C° 0 mm 2 m/s 755 mmHg 77%
    07:00 +16°C° 0 mm 2 m/s 756 mmHg 71%
    08:00 +17°C° 0 mm 3 m/s 756 mmHg 65%
    09:00 +19°C° 0 mm 3 m/s 756 mmHg 59%
    10:00 +19°C° 0 mm 3 m/s 756 mmHg 55%
    11:00 +20°C° 0 mm 4 m/s 756 mmHg 52%
    12:00 +21°C° 0 mm 4 m/s 755 mmHg 48%
    13:00 +21°C° 0 mm 4 m/s 755 mmHg 48%
    14:00 +21°C° 0 mm 4 m/s 755 mmHg 48%
    15:00 +21°C° 0 mm 4 m/s 755 mmHg 48%
    16:00 +20°C° 0 mm 4 m/s 755 mmHg 51%
    17:00 +20°C° 0 mm 3 m/s 755 mmHg 53%
    18:00 +20°C° 0 mm 3 m/s 754 mmHg 55%
    19:00 +18°C° 0 mm 2 m/s 754 mmHg 62%
    20:00 +16°C° 0 mm 2 m/s 754 mmHg 68%
    21:00 +14°C° 0 mm 1 m/s 754 mmHg 75%
    22:00 +13°C° 0 mm 1 m/s 754 mmHg 78%
    23:00 +13°C° 0 mm 1 m/s 754 mmHg 80%
    Mostrar mais